Location: Amsterdam
(30.7274°N, 84.4357°W)
Time: 01:14:33
(UTC+00:00)

Courier 1B Rocket - Pass Details

Date: 16 February 2026
Orbit: 920 x 1201 km, 28.2° (Epoch: 10 March)

Event Time Altitude Azimuth Distance (km) Brightness Sun altitude
Rises 02:07:21 0° 252° (WSW) 3,564 8.8 -35.3°
Reaches altitude 10° 02:09:56 10° 249° (WSW) 2,641 7.9 -35.8°
Enters shadow 02:13:38 36° 236° (SW) 1,455 6.1 -36.6°
Maximum altitude 02:16:12 63° 170° (S) 1,073 - -37.2°
Drops below altitude 10° 02:22:54 10° 90° (E) 2,807 - -38.6°
Sets 02:25:43 0° 88° (E) 3,804 - -39.2°
